Location: Gleizolles
(44.4833°N, 6.7667°E)
Time: 02:55:00
(UTC+00:00)

Vanguard 1 Rocket - Pass Details

Date: 02 July 2024
Orbit: 650 x 4219 km, 34.3° (Epoch: 15 July)

Event Time Altitude Azimuth Distance (km) Brightness Sun altitude
Rises 03:20:59 0° 273° (W) 5,729 11.0 -5.4°
Reaches altitude 10° 03:24:14 10° 268° (W) 5,110 10.7 -4.9°
Maximum altitude 03:39:51 50° 199° (SSW) 4,162 10.4 -2.7°
Drops below altitude 10° 04:03:39 10° 134° (SE) 7,417 12.2 0.8°
Sets 04:09:44 0° 130° (SE) 8,376 12.6 1.7°
